sat.trackr.live / text

‹ back to catalog

STARLINK-6296

NORAD 56773 · 2023-078G

PAYLOAD ACTIVE UNKNOWN

§ Identity

Operator
Country
US
Launch date
2023-05-31
Launch site
AFWTR
Launch vehicle
Mass (kg)
RCS (m²)

Purposes: comms

External: N2YO · Heavens-Above · Gunter

§ Orbital elements

Epoch: 2026-09-20T12:07:19.590240Z

Period
96.11 min
Inclination
70.0002°
Eccentricity
0.0002882
Mean motion
14.98324377 rev/d
Perigee alt
570.1 km
Apogee alt
574.1 km
Semi-major
6,950.2 km
B*
2.6137e-5
RAAN
173.4248°
Arg perigee
268.9441°
Mean anomaly
91.1388°
Rev number
18,284

§ Raw data

STARLINK-62961 56773U 23078G   26263.50508785  .00000219  00000+0  26137-4 0  99992 56773  70.0002 173.4248 0002882 268.9441  91.1388 14.98324377182843

JSON: /api/v1/satellites/56773 · /tle

For live sub-satellite position, see the globe view (requires WebGL).

§ Visibility from observer

Set your observer location to see the next 7 days of passes ≥ 10°. The values pass through the URL so the page stays shareable.

No JS? Fill the form by hand. The geolocation button needs JavaScript.